Cork, Ireland

7:31 AM IST on August 21, 2017 (GMT +0100)
Cork

Weather History for EICK - June, 2013

Change the Weather History Date:

Sunday, June 9, 2013

  Actual Average Record
Temperature  
Mean Temperature 58 °F -  
Max Temperature 65 °F 63 °F 73 °F (2008)
Min Temperature 51 °F 50 °F 41 °F (2012)
Degree Days  
Heating Degree Days 7    
Growing Degree Days 8 (Base 50)    
Moisture  
Dew Point 50 °F    
Average Humidity 73    
Maximum Humidity 94    
Minimum Humidity 55    
Precipitation  
Precipitation 0.00 in 0.09 in - ()
Sea Level Pressure  
Sea Level Pressure 30.00 in    
Wind  
Wind Speed 8 mph ()    
Max Wind Speed 15 mph    
Max Gust Speed -    
Visibility 6.8 miles    
Events      
Averages and records for this station are not official NWS values.
T = Trace of Precipitation, MM = Missing Value Source: Averaged Metar Reports

Daily Weather History Graph

Daily Weather History Graph

Search for Another Location

Airport or City:

Trip Planner

Search our weather history database for the weather conditions in past years. The results will help you decide how hot, cold, wet, or windy it might be!

Date:

Astronomy

Jun. 09, 2013 Rise Set
Actual Time 5:15 AM IST 9:51 PM IST
Civil Twilight 4:28 AM IST 10:38 PM IST
Nautical Twilight 3:14 AM IST 11:53 PM IST
Astronomical Twilight 2:05 AM IST 1:00 AM IST
Moon 6:09 AM IST (6/9) 10:18 PM IST (6/9)
Length of Visible Light 18h 10m
Length of Day
16h 35m
New Moon, 1% of the Moon is Illuminated
Jun 9
New Moon
Jun 16
First Quarter
Jun 23
Full
Jun 30
Last Quarter
Jul 8
New

Hourly Weather History & Observations

Time (IST) Temp. Dew Point Humidity Pressure Visibility Wind Dir Wind Speed Gust Speed Precip Events Conditions
12:00 AM 60.8 °F 44.6 °F 55% 30.09 in 6.2 mi WNW 6.9 mph - N/A   Scattered Clouds
12:30 AM 59.0 °F 44.6 °F 59% 30.09 in 6.2 mi WNW 6.9 mph - N/A   Scattered Clouds
1:00 AM 58 °F 47 °F 56% 30.10 in 19 mi WNW 6.7 mph - -   Scattered Clouds
1:00 AM 59.0 °F 46.4 °F 63% 30.09 in 6.2 mi WNW 6.9 mph - N/A   Scattered Clouds
1:30 AM 57.2 °F 44.6 °F 63% 30.09 in 6.2 mi NW 6.9 mph - N/A   Scattered Clouds
2:00 AM 57.2 °F 44.6 °F 63% 30.06 in 6.2 mi NW 8.1 mph - N/A   Scattered Clouds
2:30 AM 55.4 °F 44.6 °F 67% 30.06 in 6.2 mi NW 6.9 mph - N/A   Scattered Clouds
3:00 AM 55.4 °F 44.6 °F 67% 30.06 in 6.2 mi NNW 8.1 mph - N/A   Scattered Clouds
3:30 AM 55.4 °F 44.6 °F 67% 30.06 in 6.2 mi NNW 6.9 mph - N/A   Scattered Clouds
4:00 AM 53.6 °F 44.6 °F 72% 30.04 in 6.2 mi NNW 8.1 mph - N/A   Scattered Clouds
4:30 AM 55.4 °F 46.4 °F 72% 30.04 in 6.2 mi NNW 6.9 mph - N/A   Partly Cloudy
5:00 AM 53.6 °F 46.4 °F 77% 30.04 in 6.2 mi NW 5.8 mph - N/A   Partly Cloudy
5:30 AM 53.6 °F 46.4 °F 77% 30.04 in 6.2 mi NW 4.6 mph - N/A   Partly Cloudy
6:00 AM 55.4 °F 48.2 °F 77% 30.04 in 6.2 mi NNW 5.8 mph - N/A   Partly Cloudy
6:30 AM 57.2 °F 48.2 °F 72% 30.04 in 6.2 mi North 5.8 mph - N/A   Partly Cloudy
7:00 AM 56 °F 48 °F 66% 30.04 in 22 mi NNW 6.7 mph - -   Scattered Clouds
7:00 AM 57.2 °F 48.2 °F 72% 30.04 in 6.2 mi NNW 5.8 mph - N/A   Partly Cloudy
7:30 AM 57.2 °F 48.2 °F 72% 30.04 in 6.2 mi North 3.5 mph - N/A   Partly Cloudy
8:00 AM 60.8 °F 50.0 °F 68% 30.04 in - Variable 3.5 mph - N/A   Clear
8:30 AM 59.0 °F 51.8 °F 77% 30.04 in - ESE 4.6 mph - N/A   Clear
9:00 AM 59.0 °F 51.8 °F 77% 30.01 in - ESE 5.8 mph - N/A   Clear
9:30 AM 60.8 °F 50.0 °F 68% 30.01 in - East 5.8 mph - N/A   Clear
10:00 AM 60.8 °F 51.8 °F 72% 30.01 in - ESE 6.9 mph - N/A   Clear
10:30 AM 62.6 °F 51.8 °F 68% 30.01 in - ESE 8.1 mph - N/A   Clear
11:00 AM 64.4 °F 51.8 °F 64% 30.01 in - SE 8.1 mph - N/A   Clear
11:30 AM 64.4 °F 50.0 °F 59% 30.01 in - SE 9.2 mph - N/A   Clear
12:00 PM 64.4 °F 50.0 °F 59% 30.01 in - SE 9.2 mph - N/A   Clear
12:30 PM 66.2 °F 50.0 °F 56% 30.01 in - SE 9.2 mph - N/A   Clear
1:00 PM 64 °F 54 °F 60% 30.00 in 22 mi ESE 13.4 mph - -   Scattered Clouds
1:00 PM 64.4 °F 53.6 °F 68% 30.01 in 6.2 mi ESE 12.7 mph - N/A   Partly Cloudy
1:30 PM 64.4 °F 53.6 °F 68% 29.98 in 6.2 mi SE 11.5 mph - N/A   Partly Cloudy
2:00 PM 64.4 °F 55.4 °F 73% 29.98 in 6.2 mi SSE 11.5 mph - N/A   Partly Cloudy
2:30 PM 64.4 °F 55.4 °F 73% 29.98 in 6.2 mi SSE 11.5 mph - N/A   Partly Cloudy
3:00 PM 64.4 °F 55.4 °F 73% 29.98 in 6.2 mi SE 11.5 mph - N/A   Partly Cloudy
3:30 PM 64.4 °F 55.4 °F 73% 29.98 in 6.2 mi SSE 13.8 mph - N/A   Partly Cloudy
4:00 PM 62.6 °F 55.4 °F 77% 29.95 in 6.2 mi SSE 12.7 mph - N/A   Partly Cloudy
4:30 PM 60.8 °F 53.6 °F 77% 29.95 in 6.2 mi SE 15.0 mph - N/A   Scattered Clouds
5:00 PM 60.8 °F 53.6 °F 77% 29.95 in 6.2 mi SE 15.0 mph - N/A   Scattered Clouds
5:30 PM 59.0 °F 53.6 °F 82% 29.95 in 6.2 mi SSE 13.8 mph - N/A   Scattered Clouds
6:00 PM 59.0 °F 51.8 °F 77% 29.95 in 6.2 mi SSE 13.8 mph - N/A   Scattered Clouds
6:30 PM 59.0 °F 51.8 °F 77% 29.95 in 6.2 mi SSE 12.7 mph - N/A   Scattered Clouds
7:00 PM 58 °F 52 °F 76% 29.95 in 16 mi SE 13.4 mph - -   Scattered Clouds
7:00 PM 59.0 °F 51.8 °F 77% 29.95 in 6.2 mi SE 12.7 mph - N/A   Partly Cloudy
7:30 PM 57.2 °F 51.8 °F 82% 29.95 in 6.2 mi SSE 11.5 mph - N/A   Partly Cloudy
8:00 PM 55.4 °F 51.8 °F 88% 29.95 in 6.2 mi SE 12.7 mph - N/A   Scattered Clouds
8:30 PM 53.6 °F 51.8 °F 94% 29.95 in 6.2 mi SE 10.4 mph - N/A   Mostly Cloudy
9:00 PM 53.6 °F 50.0 °F 88% 29.95 in 6.2 mi SSE 8.1 mph - N/A   Mostly Cloudy
9:30 PM 53.6 °F 51.8 °F 94% 29.95 in 6.2 mi SSE 8.1 mph - N/A   Scattered Clouds
10:00 PM 51.8 °F 50.0 °F 94% 29.95 in 6.2 mi SE 9.2 mph - N/A   Scattered Clouds
10:30 PM 51.8 °F 50.0 °F 94% 29.95 in 6.2 mi SE 9.2 mph - N/A   Scattered Clouds
11:00 PM 51.8 °F 50.0 °F 94% 29.95 in 6.2 mi SE 9.2 mph - N/A   Scattered Clouds
11:30 PM 51.8 °F 48.2 °F 88% 29.92 in 6.2 mi SE 10.4 mph - N/A   Mostly Cloudy